Location: Haliburton Scout Reserve
(45.0900°N, 78.3200°W)
Time: 05:53:08
(UTC-04:00)

AO-92 - Visible Passes

Search period start: 02 April 2023 00:00
Search period end: 12 April 2023 00:00
Orbit: 440 x 449 km, 97.3° (Epoch: 01 April)

Date Brightness Start Highest point End Pass type
(mag) Time Alt. Az. Time Alt. Az. Time Alt. Az.
07 Apr ? 23:15:05 11° N 23:15:05 11° N 23:15:14 10° N visible
09 Apr ? 23:33:00 11° NNW 23:33:00 11° NNW 23:33:12 10° NNW visible
10 Apr ? 22:55:06 12° N 22:55:06 12° N 22:55:29 10° N visible
11 Apr ? 23:50:34 11° NNW 23:50:34 11° NNW 23:50:40 10° NNW visible
